IBE3232 FACT-LEMD

Flight info

Callsign IBE3232
Flight time N/A
Altitude 33000
Route KODES UN186 EVOMO/N0478F350 UN186 ATUPI/N0481F340 UM436 ANVAG UN187 ILGOL/N0479F360 UN187 VNA UR526 LIKAD UY339 MESIN UG861 DLA UA604 AKLIS/N0474F380 UA604 MNA/N0461F400 UA604 MOS UA34 HAMRA P34 RINDI DCT NARGO L150 VILLA
Aircraft A343/H-SDE2E3FGHIJ4J5M1RWXY/LB1D1

Departure

Time 2026-05-06 03:55
Airport Cape Town International Airport (FACT)

Arrival

Time N/A
Airport Adolfo Suárez Madrid–Barajas Airport (LEMD)
Time Latitude Longitude Altitude Speed Heading
2026-05-06 03:38 -33.97301 18.59933 158 ft 0 kts 254°
2026-05-06 03:46 -33.97300 18.59937 157 ft 4 kts 253°
2026-05-06 03:46 -33.97292 18.59966 157 ft 3 kts 250°
2026-05-06 03:47 -33.97285 18.59987 157 ft 2 kts 236°
2026-05-06 03:47 -33.97279 18.59998 157 ft 2 kts 209°
2026-05-06 03:47 -33.97268 18.60003 157 ft 2 kts 178°
2026-05-06 03:47 -33.97257 18.60003 157 ft 2 kts 170°
2026-05-06 03:48 -33.97247 18.60000 157 ft 2 kts 166°
2026-05-06 03:48 -33.97237 18.59998 157 ft 0 kts 166°
2026-05-06 03:49 -33.97238 18.59998 157 ft 1 kts 166°
2026-05-06 03:50 -33.97260 18.60005 157 ft 6 kts 166°
2026-05-06 03:50 -33.97317 18.60022 157 ft 11 kts 166°
2026-05-06 03:50 -33.97402 18.60049 157 ft 15 kts 163°
2026-05-06 03:50 -33.97512 18.60091 157 ft 18 kts 158°
2026-05-06 03:51 -33.97640 18.60157 157 ft 22 kts 160°
2026-05-06 03:51 -33.97787 18.60222 157 ft 24 kts 160°
2026-05-06 03:51 -33.97954 18.60293 157 ft 27 kts 160°
2026-05-06 03:51 -33.98136 18.60371 157 ft 29 kts 160°
2026-05-06 03:52 -33.98332 18.60455 157 ft 31 kts 160°
2026-05-06 03:52 -33.98540 18.60544 157 ft 33 kts 160°
2026-05-06 03:52 -33.98759 18.60640 157 ft 33 kts 160°
2026-05-06 03:52 -33.98801 18.60715 157 ft 9 kts 86°
2026-05-06 03:53 -33.98781 18.60805 158 ft 13 kts 74°
2026-05-06 03:53 -33.98746 18.60876 158 ft 6 kts
2026-05-06 03:53 -33.98702 18.60865 158 ft 0 kts 345°
2026-05-06 03:53 -33.98701 18.60865 158 ft 0 kts 345°
2026-05-06 03:54 -33.98517 18.60807 156 ft 56 kts 345°
2026-05-06 03:54 -33.97981 18.60638 157 ft 104 kts 345°
2026-05-06 03:54 -33.97140 18.60370 159 ft 145 kts 345°
2026-05-06 03:54 -33.96086 18.60040 393 ft 157 kts 343°
2026-05-06 03:55 -33.95038 18.59697 840 ft 155 kts 344°
2026-05-06 03:55 -33.93958 18.59333 1088 ft 171 kts 343°
2026-05-06 03:55 -33.92742 18.58900 1301 ft 191 kts 339°
2026-05-06 03:55 -33.91640 18.57949 1513 ft 205 kts 307°
2026-05-06 03:56 -33.90759 18.56462 1713 ft 228 kts 304°
2026-05-06 03:56 -33.89582 18.55053 2002 ft 251 kts 321°
2026-05-06 03:56 -33.88093 18.53845 2424 ft 265 kts 327°
2026-05-06 03:56 -33.86365 18.52969 2937 ft 276 kts 350°
2026-05-06 03:57 -33.84446 18.53124 3491 ft 282 kts 22°
2026-05-06 03:57 -33.82745 18.54231 4132 ft 283 kts 36°
2026-05-06 03:57 -33.81003 18.55355 4766 ft 290 kts 17°
2026-05-06 03:57 -33.79015 18.55877 5423 ft 294 kts 12°
2026-05-06 03:58 -33.76997 18.56360 6095 ft 297 kts 14°
2026-05-06 03:58 -33.74976 18.56895 6745 ft 299 kts 15°
2026-05-06 03:58 -33.72940 18.57476 7371 ft 302 kts 16°
2026-05-06 03:58 -33.70888 18.58086 8002 ft 305 kts 17°
2026-05-06 03:59 -33.68824 18.58714 8608 ft 307 kts 17°
2026-05-06 03:59 -33.66738 18.59357 9228 ft 310 kts 18°
2026-05-06 03:59 -33.64640 18.60006 9838 ft 313 kts 18°
2026-05-06 03:59 -33.62526 18.60663 10344 ft 318 kts 18°
2026-05-06 04:00 -33.60337 18.61346 10603 ft 331 kts 18°
2026-05-06 04:00 -33.58092 18.62047 10837 ft 344 kts 18°
2026-05-06 04:00 -33.55730 18.62782 11073 ft 357 kts 17°
2026-05-06 04:00 -33.53287 18.63542 11319 ft 369 kts 17°
2026-05-06 04:01 -33.50760 18.64327 11550 ft 381 kts 17°
2026-05-06 04:01 -33.48149 18.65137 11870 ft 390 kts 17°
2026-05-06 04:01 -33.45504 18.65956 12318 ft 395 kts 17°
2026-05-06 04:01 -33.42825 18.66785 12815 ft 399 kts 17°
2026-05-06 04:02 -33.40127 18.67621 13330 ft 402 kts 17°
2026-05-06 04:02 -33.37403 18.68463 13854 ft 406 kts 16°
2026-05-06 04:02 -33.34660 18.69312 14317 ft 409 kts 16°
2026-05-06 04:02 -33.31890 18.70169 14777 ft 412 kts 16°
2026-05-06 04:03 -33.29100 18.71032 15226 ft 415 kts 15°
2026-05-06 04:03 -33.26285 18.71901 15659 ft 419 kts 15°
2026-05-06 04:03 -33.23487 18.72765 16113 ft 422 kts 15°
2026-05-06 04:03 -33.20640 18.73644 16575 ft 424 kts 15°
2026-05-06 04:04 -33.17763 18.74514 17024 ft 427 kts 13°
2026-05-06 04:04 -33.14814 18.75081 17463 ft 431 kts
2026-05-06 04:04 -33.11810 18.75053 17933 ft 433 kts 355°
2026-05-06 04:04 -33.08805 18.74671 18385 ft 435 kts 352°
2026-05-06 04:05 -33.05797 18.74137 18801 ft 437 kts 350°
2026-05-06 04:05 -33.02798 18.73539 19260 ft 438 kts 350°
2026-05-06 04:05 -32.99782 18.72923 19650 ft 441 kts 351°
2026-05-06 04:05 -32.96754 18.72315 20078 ft 442 kts 351°
2026-05-06 04:06 -32.93714 18.71720 20520 ft 442 kts 352°
2026-05-06 04:06 -32.90677 18.71142 20962 ft 443 kts 352°
2026-05-06 04:06 -32.87622 18.70570 21394 ft 444 kts 352°
2026-05-06 04:06 -32.84605 18.70010 21791 ft 445 kts 353°
2026-05-06 04:07 -32.81534 18.69444 22212 ft 447 kts 353°
2026-05-06 04:07 -32.78459 18.68879 22618 ft 448 kts 353°
2026-05-06 04:07 -32.75358 18.68309 22861 ft 453 kts 353°
2026-05-06 04:07 -32.72224 18.67733 23198 ft 455 kts 353°
2026-05-06 04:08 -32.69095 18.67157 23599 ft 456 kts 353°
2026-05-06 04:08 -32.65958 18.66579 23944 ft 457 kts 353°
2026-05-06 04:08 -32.62807 18.65998 24202 ft 459 kts 353°
2026-05-06 04:08 -32.59635 18.65414 24457 ft 462 kts 353°
2026-05-06 04:09 -32.56447 18.64828 24721 ft 464 kts 353°
2026-05-06 04:09 -32.53251 18.64240 24998 ft 466 kts 353°
2026-05-06 04:09 -32.50046 18.63652 25257 ft 467 kts 353°
2026-05-06 04:09 -32.46863 18.63068 25508 ft 469 kts 353°
2026-05-06 04:10 -32.43634 18.62477 25761 ft 471 kts 353°
2026-05-06 04:10 -32.40385 18.61881 26013 ft 473 kts 353°
2026-05-06 04:10 -32.37123 18.61284 26252 ft 474 kts 353°
2026-05-06 04:10 -32.33851 18.60684 26488 ft 476 kts 353°
2026-05-06 04:11 -32.30572 18.60084 26729 ft 478 kts 353°
2026-05-06 04:11 -32.27272 18.59481 26918 ft 481 kts 352°
2026-05-06 04:11 -32.23953 18.58876 27071 ft 484 kts 352°
2026-05-06 04:11 -32.20613 18.58266 27314 ft 486 kts 352°
2026-05-06 04:12 -32.17266 18.57656 27546 ft 487 kts 352°
2026-05-06 04:12 -32.13953 18.57053 27773 ft 489 kts 352°
2026-05-06 04:12 -32.10549 18.56433 27991 ft 490 kts 352°
2026-05-06 04:12 -32.07210 18.55826 28211 ft 492 kts 352°
2026-05-06 04:13 -32.03827 18.55211 28433 ft 493 kts 352°
2026-05-06 04:13 -32.00424 18.54593 28516 ft 498 kts 352°
2026-05-06 04:13 -31.96962 18.53965 28647 ft 501 kts 352°
2026-05-06 04:13 -31.93516 18.53340 28890 ft 502 kts 352°
2026-05-06 04:14 -31.90064 18.52714 29199 ft 501 kts 352°
2026-05-06 04:14 -31.86625 18.52091 29496 ft 500 kts 352°
2026-05-06 04:14 -31.83189 18.51469 29775 ft 499 kts 352°
2026-05-06 04:14 -31.79759 18.50849 30052 ft 499 kts 352°
2026-05-06 04:15 -31.76323 18.50228 30268 ft 500 kts 352°
2026-05-06 04:15 -31.72873 18.49606 30348 ft 503 kts 352°
2026-05-06 04:15 -31.69410 18.48981 30500 ft 504 kts 352°
2026-05-06 04:15 -31.65936 18.48355 30660 ft 505 kts 352°
2026-05-06 04:16 -31.62505 18.47737 30801 ft 507 kts 351°
2026-05-06 04:16 -31.59008 18.47108 30949 ft 508 kts 351°
2026-05-06 04:16 -31.55510 18.46479 31100 ft 509 kts 351°
2026-05-06 04:16 -31.52002 18.45848 31250 ft 511 kts 351°
2026-05-06 04:17 -31.44936 18.44580 31438 ft 515 kts 351°
2026-05-06 04:17 -31.41388 18.43944 31607 ft 516 kts 351°
2026-05-06 04:17 -31.37832 18.43306 31747 ft 517 kts 350°
2026-05-06 04:18 -31.30679 18.42026 31860 ft 523 kts 350°
2026-05-06 04:18 -31.27118 18.41389 31968 ft 524 kts 350°
2026-05-06 04:18 -31.23497 18.40743 31997 ft 528 kts 349°
2026-05-06 04:19 -31.16184 18.39438 32212 ft 531 kts 349°
2026-05-06 04:19 -31.12529 18.38787 32377 ft 532 kts 349°
2026-05-06 04:19 -31.08869 18.38136 32513 ft 533 kts 349°
2026-05-06 04:20 -31.05195 18.37482 32642 ft 534 kts 349°
2026-05-06 04:20 -31.01520 18.36829 32783 ft 534 kts 349°
2026-05-06 04:20 -30.94123 18.35515 32853 ft 540 kts 348°
2026-05-06 04:21 -30.90403 18.34855 33017 ft 540 kts 348°
2026-05-06 04:21 -30.86690 18.34197 33150 ft 540 kts 348°
2026-05-06 04:21 -30.79325 18.32897 33163 ft 531 kts 348°
2026-05-06 04:22 -30.72022 18.31607 33174 ft 530 kts 348°
2026-05-06 04:23 -30.61100 18.29678 33176 ft 531 kts 348°
2026-05-06 04:23 -30.53789 18.28390 33187 ft 532 kts 348°
2026-05-06 04:24 -30.46468 18.27108 33177 ft 532 kts 347°
2026-05-06 04:24 -30.39131 18.25817 33195 ft 534 kts 347°
2026-05-06 04:25 -30.31770 18.24525 33195 ft 534 kts 347°
2026-05-06 04:25 -30.24419 18.23237 33196 ft 535 kts 347°
2026-05-06 04:26 -30.17046 18.21950 33200 ft 536 kts 347°
2026-05-06 04:26 -30.09719 18.20671 33202 ft 536 kts 347°
2026-05-06 04:27 -30.02333 18.19385 33208 ft 536 kts 347°
2026-05-06 04:27 -29.94952 18.18099 33199 ft 536 kts 347°
2026-05-06 04:28 -29.87559 18.16815 33186 ft 536 kts 347°
2026-05-06 04:28 -29.80175 18.15536 33181 ft 536 kts 347°
2026-05-06 04:29 -29.74034 18.14472 33173 ft 536 kts 347°
2026-05-06 04:29 -29.66654 18.13196 33167 ft 537 kts 346°
2026-05-06 04:30 -29.59194 18.11904 33173 ft 545 kts 346°
2026-05-06 04:30 -29.51725 18.10616 33202 ft 546 kts 346°
2026-05-06 04:31 -29.44213 18.09325 33199 ft 545 kts 346°
2026-05-06 04:31 -29.36702 18.08036 33194 ft 544 kts 346°
2026-05-06 04:32 -29.29224 18.06752 33192 ft 543 kts 346°
2026-05-06 04:32 -29.21749 18.05470 33193 ft 543 kts 346°
2026-05-06 04:33 -29.14272 18.04189 33166 ft 543 kts 345°
2026-05-06 04:33 -29.06811 18.02916 33192 ft 540 kts 345°
2026-05-06 04:34 -28.99386 18.01649 33191 ft 539 kts 345°
2026-05-06 04:34 -28.91994 18.00386 33187 ft 539 kts 345°
2026-05-06 04:35 -28.84582 17.99121 33180 ft 538 kts 344°
2026-05-06 04:35 -28.77219 17.97870 33185 ft 533 kts 344°
2026-05-06 04:36 -28.69886 17.96630 33195 ft 533 kts 344°
2026-05-06 04:36 -28.62549 17.95387 33195 ft 533 kts 344°
2026-05-06 04:37 -28.55223 17.94147 33190 ft 530 kts 343°
2026-05-06 04:37 -28.47933 17.92919 33192 ft 528 kts 343°
2026-05-06 04:38 -28.40711 17.91702 33187 ft 528 kts 343°
2026-05-06 04:38 -28.33439 17.90472 33152 ft 528 kts 343°
2026-05-06 04:39 -28.26192 17.89252 33187 ft 524 kts 343°
2026-05-06 04:39 -28.18942 17.88253 33186 ft 527 kts 348°
2026-05-06 04:40 -28.11597 17.87775 33187 ft 529 kts 349°
2026-05-06 04:40 -28.04292 17.87338 33153 ft 528 kts 349°
2026-05-06 04:41 -27.96990 17.86827 33185 ft 522 kts 348°
2026-05-06 04:41 -27.89763 17.86269 33187 ft 520 kts 348°
2026-05-06 04:42 -27.82520 17.85695 33188 ft 520 kts 348°
2026-05-06 04:42 -27.75343 17.85132 33184 ft 519 kts 348°
2026-05-06 04:43 -27.68170 17.84579 33181 ft 514 kts 348°
2026-05-06 04:43 -27.61036 17.84027 33192 ft 513 kts 348°
2026-05-06 04:44 -27.53903 17.83472 33186 ft 513 kts 348°
2026-05-06 04:44 -27.46860 17.82782 33167 ft 508 kts 344°
2026-05-06 04:45 -27.39932 17.81566 33188 ft 501 kts 342°
2026-05-06 04:45 -27.33062 17.80285 33189 ft 500 kts 342°
2026-05-06 04:46 -27.26170 17.79080 33188 ft 501 kts 343°
2026-05-06 04:46 -27.19267 17.77926 33188 ft 501 kts 343°
2026-05-06 04:47 -27.12359 17.76787 33190 ft 502 kts 343°
2026-05-06 04:47 -27.05438 17.75645 33188 ft 502 kts 343°
2026-05-06 04:48 -26.98522 17.74502 33189 ft 502 kts 343°
2026-05-06 04:48 -26.91605 17.73359 33173 ft 502 kts 343°
2026-05-06 04:49 -26.84692 17.72220 33194 ft 501 kts 343°
2026-05-06 04:49 -26.77799 17.71085 33194 ft 501 kts 343°
2026-05-06 04:50 -26.70946 17.69957 33195 ft 501 kts 343°
2026-05-06 04:50 -26.64056 17.68824 33162 ft 500 kts 343°
2026-05-06 04:51 -26.57171 17.67696 33194 ft 499 kts 343°
2026-05-06 04:51 -26.50301 17.66569 33195 ft 498 kts 343°
2026-05-06 04:52 -26.43434 17.65443 33196 ft 498 kts 343°
2026-05-06 04:52 -26.36565 17.64320 33197 ft 499 kts 343°
2026-05-06 04:53 -26.29753 17.63210 33195 ft 496 kts 343°
2026-05-06 04:53 -26.22882 17.62085 33195 ft 496 kts 343°
2026-05-06 04:54 -26.16106 17.60977 33200 ft 496 kts 343°
2026-05-06 04:54 -26.09274 17.59862 33197 ft 496 kts 343°
2026-05-06 04:55 -26.02450 17.58751 33202 ft 496 kts 343°
2026-05-06 04:55 -25.95614 17.57639 33204 ft 496 kts 343°
2026-05-06 04:56 -25.88783 17.56529 33204 ft 497 kts 343°
2026-05-06 04:56 -25.81881 17.55403 33207 ft 505 kts 343°
2026-05-06 04:57 -25.74922 17.54272 33201 ft 511 kts 343°
2026-05-06 04:57 -25.67897 17.53141 33209 ft 509 kts 343°
2026-05-06 04:58 -25.60887 17.52012 33216 ft 509 kts 343°
2026-05-06 04:58 -25.53878 17.50882 33215 ft 509 kts 343°
2026-05-06 04:59 -25.46864 17.49751 33202 ft 508 kts 343°
2026-05-06 04:59 -25.39916 17.48632 33216 ft 506 kts 343°
2026-05-06 05:00 -25.32935 17.47507 33228 ft 506 kts 343°
2026-05-06 05:00 -25.25960 17.46386 33219 ft 507 kts 343°
2026-05-06 05:01 -25.18977 17.45265 33198 ft 506 kts 343°
2026-05-06 05:01 -25.12004 17.44149 33219 ft 504 kts 343°
2026-05-06 05:02 -25.05063 17.43037 33230 ft 504 kts 343°
2026-05-06 05:02 -25.01591 17.42481 33397 ft 503 kts 343°
2026-05-06 05:02 -24.98174 17.41935 33592 ft 502 kts 343°
2026-05-06 05:02 -24.94712 17.41381 33765 ft 502 kts 343°
2026-05-06 05:03 -24.91252 17.40827 33934 ft 502 kts 343°
2026-05-06 05:03 -24.87806 17.40277 34114 ft 499 kts 343°
2026-05-06 05:03 -24.84371 17.39730 34354 ft 497 kts 343°
2026-05-06 05:04 -24.77487 17.38626 34384 ft 502 kts 343°
2026-05-06 05:04 -24.74027 17.38072 34544 ft 502 kts 343°
2026-05-06 05:04 -24.70571 17.37523 34708 ft 500 kts 343°
2026-05-06 05:04 -24.67130 17.36977 34873 ft 499 kts 343°
2026-05-06 05:05 -24.63696 17.36432 35017 ft 498 kts 343°
2026-05-06 05:05 -24.60264 17.35887 35131 ft 497 kts 342°
2026-05-06 05:05 -24.56836 17.35342 35215 ft 498 kts 342°
2026-05-06 05:06 -24.50022 17.34257 35224 ft 498 kts 342°
2026-05-06 05:06 -24.43175 17.33170 35230 ft 497 kts 342°
2026-05-06 05:07 -24.36329 17.32086 35233 ft 497 kts 342°
2026-05-06 05:07 -24.29482 17.31012 35236 ft 497 kts 342°
2026-05-06 05:08 -24.22637 17.29939 35241 ft 497 kts 342°
2026-05-06 05:08 -24.15784 17.28863 35241 ft 497 kts 342°
2026-05-06 05:09 -24.08938 17.27790 35240 ft 497 kts 342°
2026-05-06 05:09 -24.02083 17.26718 35212 ft 497 kts 342°
2026-05-06 05:10 -23.95282 17.25654 35240 ft 496 kts 342°
2026-05-06 05:10 -23.88444 17.24585 35246 ft 496 kts 342°
2026-05-06 05:11 -23.81606 17.23517 35245 ft 496 kts 342°
2026-05-06 05:11 -23.74761 17.22449 35252 ft 497 kts 342°
2026-05-06 05:12 -23.67921 17.21384 35247 ft 496 kts 343°
2026-05-06 05:12 -23.61093 17.20311 35261 ft 495 kts 342°
2026-05-06 05:13 -23.54285 17.19211 35259 ft 495 kts 342°
2026-05-06 05:13 -23.47469 17.18107 35266 ft 495 kts 342°
2026-05-06 05:14 -23.40656 17.17009 35241 ft 494 kts 343°
2026-05-06 05:14 -23.33908 17.15926 35272 ft 492 kts 342°
2026-05-06 05:15 -23.27136 17.14833 35263 ft 492 kts 342°
2026-05-06 05:15 -23.20372 17.13743 35265 ft 492 kts 342°
2026-05-06 05:16 -23.13623 17.12586 35255 ft 488 kts 340°
2026-05-06 05:16 -23.07003 17.11002 35257 ft 485 kts 338°
2026-05-06 05:17 -23.01546 17.09618 35245 ft 484 kts 338°
2026-05-06 05:17 -22.94964 17.08002 35243 ft 485 kts 339°
2026-05-06 05:18 -22.88365 17.06435 35232 ft 485 kts 339°
2026-05-06 05:18 -22.81750 17.04883 35212 ft 485 kts 339°
2026-05-06 05:19 -22.75191 17.03345 35232 ft 486 kts 339°
2026-05-06 05:19 -22.68592 17.01797 35238 ft 485 kts 339°
2026-05-06 05:20 -22.61990 17.00249 35238 ft 485 kts 339°
2026-05-06 05:20 -22.55393 16.98704 35238 ft 485 kts 339°
2026-05-06 05:21 -22.48794 16.97168 35200 ft 484 kts 340°
2026-05-06 05:21 -22.42222 16.95638 35213 ft 483 kts 340°
2026-05-06 05:22 -22.35648 16.94103 35211 ft 482 kts 340°
2026-05-06 05:22 -22.29092 16.92541 35233 ft 482 kts 339°
2026-05-06 05:23 -22.22577 16.90996 35231 ft 482 kts 340°
2026-05-06 05:23 -22.12716 16.88771 35251 ft 482 kts 340°
2026-05-06 05:24 -22.06143 16.87288 35260 ft 482 kts 340°
2026-05-06 05:24 -21.99595 16.85775 35262 ft 481 kts 340°
2026-05-06 05:25 -21.93085 16.84264 35261 ft 482 kts 340°
2026-05-06 05:25 -21.86527 16.82747 35257 ft 482 kts 340°
2026-05-06 05:26 -21.79967 16.81234 35265 ft 482 kts 340°
2026-05-06 05:26 -21.73401 16.79723 35265 ft 482 kts 340°
2026-05-06 05:27 -21.66830 16.78212 35262 ft 482 kts 340°
2026-05-06 05:27 -21.60312 16.76714 35251 ft 482 kts 340°
2026-05-06 05:28 -21.53750 16.75207 35251 ft 482 kts 341°
2026-05-06 05:28 -21.47188 16.73701 35254 ft 482 kts 341°
2026-05-06 05:29 -21.40618 16.72196 35252 ft 483 kts 341°
2026-05-06 05:29 -21.34044 16.70691 35245 ft 482 kts 341°
2026-05-06 05:30 -21.27477 16.69189 35251 ft 483 kts 341°
2026-05-06 05:30 -21.20904 16.67686 35242 ft 483 kts 341°
2026-05-06 05:31 -21.14328 16.66185 35244 ft 483 kts 341°
2026-05-06 05:31 -21.07748 16.64684 35240 ft 483 kts 341°
2026-05-06 05:32 -21.01173 16.63186 35235 ft 483 kts 341°
2026-05-06 05:32 -20.94593 16.61688 35213 ft 483 kts 341°
2026-05-06 05:33 -20.88017 16.60183 35222 ft 483 kts 341°
2026-05-06 05:33 -20.81484 16.58691 35214 ft 483 kts 341°
2026-05-06 05:34 -20.74905 16.57191 35216 ft 483 kts 341°
2026-05-06 05:34 -20.68328 16.55694 35205 ft 483 kts 341°
2026-05-06 05:35 -20.61758 16.54200 35204 ft 482 kts 342°
2026-05-06 05:35 -20.55191 16.52708 35206 ft 482 kts 342°
2026-05-06 05:36 -20.48632 16.51219 35203 ft 481 kts 342°
2026-05-06 05:36 -20.42118 16.49741 35209 ft 481 kts 342°
2026-05-06 05:37 -20.35563 16.48255 35221 ft 481 kts 342°
2026-05-06 05:37 -20.29017 16.46773 35222 ft 480 kts 342°
2026-05-06 05:38 -20.22492 16.45298 35223 ft 479 kts 342°
2026-05-06 05:38 -20.15968 16.43822 35218 ft 478 kts 342°
2026-05-06 05:39 -20.09450 16.42349 35220 ft 478 kts 342°
2026-05-06 05:39 -20.02976 16.40888 35206 ft 479 kts 342°
2026-05-06 05:40 -19.96450 16.39416 35192 ft 479 kts 342°
2026-05-06 05:40 -19.89920 16.37945 35190 ft 479 kts 342°
2026-05-06 05:41 -19.83384 16.36474 35180 ft 479 kts 342°
2026-05-06 05:41 -19.76905 16.35017 35181 ft 479 kts 342°
2026-05-06 05:42 -19.70377 16.33549 35157 ft 479 kts 342°
2026-05-06 05:42 -19.63856 16.32084 35168 ft 479 kts 343°
2026-05-06 05:43 -19.57323 16.30619 35165 ft 479 kts 343°
2026-05-06 05:43 -19.50793 16.29155 35165 ft 479 kts 343°
2026-05-06 05:44 -19.44264 16.27693 35165 ft 479 kts 343°
2026-05-06 05:44 -19.37734 16.26232 35158 ft 479 kts 343°
2026-05-06 05:45 -19.31209 16.24773 35164 ft 479 kts 343°
2026-05-06 05:45 -19.24731 16.23325 35162 ft 479 kts 343°
2026-05-06 05:46 -19.18210 16.21869 35151 ft 479 kts 343°
2026-05-06 05:46 -19.11685 16.20414 35159 ft 479 kts 343°
2026-05-06 05:47 -19.05165 16.18960 35140 ft 478 kts 343°
2026-05-06 05:47 -18.98659 16.17512 35151 ft 477 kts 343°
2026-05-06 05:48 -18.92168 16.16067 35143 ft 476 kts 343°
2026-05-06 05:48 -18.85676 16.14623 35143 ft 476 kts 343°
2026-05-06 05:49 -18.79227 16.13190 35138 ft 476 kts 343°
2026-05-06 05:49 -18.72728 16.11747 35133 ft 476 kts 342°
2026-05-06 05:50 -18.66235 16.10307 35136 ft 476 kts 342°
2026-05-06 05:50 -18.59759 16.08871 35132 ft 476 kts 342°
2026-05-06 05:51 -18.53264 16.07433 35133 ft 476 kts 342°
2026-05-06 05:51 -18.46784 16.05995 35135 ft 476 kts 342°
2026-05-06 05:52 -18.40336 16.04565 35133 ft 476 kts 342°
2026-05-06 05:52 -18.33853 16.03129 35135 ft 476 kts 342°
2026-05-06 05:53 -18.27377 16.01696 35132 ft 476 kts 342°
2026-05-06 05:53 -18.20887 16.00260 35127 ft 476 kts 342°
2026-05-06 05:54 -18.14407 15.98828 35108 ft 476 kts 342°
2026-05-06 05:54 -18.07911 15.97394 35097 ft 476 kts 342°
2026-05-06 05:55 -18.01469 15.95973 35085 ft 476 kts 342°
2026-05-06 05:55 -17.94977 15.94542 35075 ft 476 kts 342°
2026-05-06 05:56 -17.88489 15.93112 35129 ft 476 kts 342°
2026-05-06 05:56 -17.82002 15.91684 35129 ft 476 kts 342°
2026-05-06 05:57 -17.75510 15.90256 35120 ft 476 kts 342°
2026-05-06 05:57 -17.69025 15.88831 35126 ft 476 kts 342°
2026-05-06 05:58 -17.62540 15.87407 35120 ft 476 kts 342°
2026-05-06 05:58 -17.56093 15.85991 35119 ft 476 kts 342°
2026-05-06 05:59 -17.49603 15.84568 35123 ft 476 kts 342°
2026-05-06 05:59 -17.43117 15.83146 35114 ft 476 kts 342°
2026-05-06 06:00 -17.36645 15.81684 35116 ft 474 kts 339°
2026-05-06 06:00 -17.30343 15.79731 35116 ft 471 kts 336°
2026-05-06 06:01 -17.24101 15.77635 35113 ft 471 kts 336°
2026-05-06 06:01 -17.17831 15.75601 35113 ft 472 kts 337°
2026-05-06 06:02 -17.11545 15.73621 35094 ft 472 kts 337°
2026-05-06 06:02 -17.05280 15.71667 35111 ft 473 kts 337°
2026-05-06 06:03 -16.98975 15.69701 35113 ft 473 kts 337°
2026-05-06 06:03 -16.92670 15.67735 35108 ft 473 kts 337°
2026-05-06 06:04 -16.86366 15.65769 35108 ft 473 kts 337°
2026-05-06 06:04 -16.80061 15.63803 35103 ft 473 kts 337°
2026-05-06 06:05 -16.73747 15.61835 35108 ft 474 kts 338°
2026-05-06 06:05 -16.68486 15.60197 35104 ft 475 kts 338°
2026-05-06 06:06 -16.62152 15.58226 35101 ft 475 kts 338°
2026-05-06 06:06 -16.55817 15.56257 35099 ft 475 kts 338°
2026-05-06 06:07 -16.49484 15.54290 35105 ft 475 kts 338°
2026-05-06 06:07 -16.43194 15.52337 35104 ft 475 kts 338°
2026-05-06 06:08 -16.36843 15.50366 35097 ft 476 kts 338°
2026-05-06 06:08 -16.30493 15.48397 35102 ft 476 kts 338°
2026-05-06 06:09 -16.24138 15.46429 35104 ft 476 kts 338°
2026-05-06 06:09 -16.17788 15.44463 35093 ft 476 kts 338°
2026-05-06 06:10 -16.11475 15.42509 35087 ft 476 kts 338°
2026-05-06 06:10 -16.05110 15.40541 35088 ft 478 kts 338°
2026-05-06 06:11 -15.98741 15.38573 35089 ft 478 kts 338°
2026-05-06 06:11 -15.92365 15.36604 35087 ft 478 kts 338°
2026-05-06 06:12 -15.85979 15.34633 35086 ft 478 kts 338°
2026-05-06 06:12 -15.79601 15.32667 35067 ft 478 kts 338°
2026-05-06 06:13 -15.73222 15.30700 35085 ft 479 kts 338°
2026-05-06 06:13 -15.66860 15.28741 35087 ft 479 kts 338°
2026-05-06 06:14 -15.60466 15.26773 35079 ft 480 kts 338°
2026-05-06 06:14 -15.54059 15.24802 35080 ft 480 kts 338°
2026-05-06 06:15 -15.47653 15.22833 35079 ft 480 kts 338°
2026-05-06 06:15 -15.41245 15.20865 35076 ft 481 kts 338°
2026-05-06 06:16 -15.34829 15.18895 35077 ft 481 kts 338°
2026-05-06 06:16 -15.28458 15.16941 35078 ft 481 kts 338°
2026-05-06 06:17 -15.22046 15.14975 35077 ft 481 kts 338°
2026-05-06 06:17 -15.15628 15.13008 35078 ft 481 kts 338°
2026-05-06 06:18 -15.09207 15.11042 35075 ft 481 kts 338°
2026-05-06 06:18 -15.02779 15.09075 35077 ft 482 kts 338°
2026-05-06 06:19 -14.96347 15.07108 35078 ft 482 kts 338°
2026-05-06 06:19 -14.89902 15.05138 35079 ft 482 kts 338°
2026-05-06 06:20 -14.83511 15.03186 35074 ft 482 kts 338°
2026-05-06 06:20 -14.77076 15.01222 35076 ft 482 kts 338°
2026-05-06 06:21 -14.70643 14.99259 35079 ft 482 kts 338°
2026-05-06 06:21 -14.64211 14.97298 35078 ft 482 kts 338°
2026-05-06 06:22 -14.57779 14.95338 35075 ft 482 kts 338°
2026-05-06 06:22 -14.51344 14.93379 35077 ft 482 kts 338°
2026-05-06 06:23 -14.44901 14.91418 35064 ft 482 kts 338°
2026-05-06 06:23 -14.38455 14.89456 35076 ft 484 kts 338°
2026-05-06 06:24 -14.31995 14.87493 35077 ft 484 kts 338°
2026-05-06 06:24 -14.25533 14.85531 35085 ft 484 kts 338°
2026-05-06 06:25 -14.19117 14.83583 35083 ft 484 kts 338°
2026-05-06 06:26 -14.09423 14.80642 35088 ft 484 kts 338°
2026-05-06 06:26 -14.02969 14.78686 35083 ft 484 kts 338°
2026-05-06 06:27 -13.96508 14.76728 35089 ft 484 kts 338°
2026-05-06 06:27 -13.90053 14.74774 35089 ft 484 kts 338°
2026-05-06 06:28 -13.83587 14.72817 35086 ft 484 kts 338°
2026-05-06 06:28 -13.77125 14.70862 35088 ft 484 kts 338°
2026-05-06 06:29 -13.70665 14.68910 35088 ft 484 kts 339°
2026-05-06 06:29 -13.64209 14.66959 35083 ft 484 kts 339°
2026-05-06 06:30 -13.57789 14.65021 35079 ft 484 kts 339°
2026-05-06 06:30 -13.51323 14.63070 35074 ft 484 kts 339°
2026-05-06 06:31 -13.44862 14.61121 35059 ft 484 kts 339°
2026-05-06 06:31 -13.38402 14.59174 35058 ft 484 kts 339°
2026-05-06 06:32 -13.31941 14.57227 35047 ft 484 kts 339°
2026-05-06 06:32 -13.25474 14.55280 35046 ft 484 kts 339°
2026-05-06 06:33 -13.19008 14.53335 35048 ft 484 kts 339°
2026-05-06 06:33 -13.12540 14.51390 35048 ft 484 kts 339°
2026-05-06 06:34 -13.06109 14.49457 35028 ft 484 kts 339°
2026-05-06 06:34 -12.99644 14.47515 35030 ft 484 kts 339°
2026-05-06 06:35 -12.93175 14.45572 35037 ft 484 kts 339°
2026-05-06 06:35 -12.86706 14.43631 35037 ft 484 kts 339°
2026-05-06 06:36 -12.80238 14.41692 35039 ft 484 kts 339°
2026-05-06 06:36 -12.73765 14.39751 35041 ft 484 kts 339°
2026-05-06 06:37 -12.67342 14.37828 35249 ft 483 kts 340°
2026-05-06 06:37 -12.64083 14.36852 35431 ft 481 kts 340°
2026-05-06 06:37 -12.60917 14.35904 35579 ft 480 kts 340°
2026-05-06 06:37 -12.57702 14.34942 35705 ft 480 kts 340°
2026-05-06 06:38 -12.54500 14.33983 35837 ft 480 kts 340°
2026-05-06 06:38 -12.51298 14.33025 35980 ft 479 kts 340°
2026-05-06 06:38 -12.48089 14.32065 36036 ft 481 kts 340°
2026-05-06 06:39 -12.41643 14.30135 36039 ft 483 kts 340°
2026-05-06 06:39 -12.35204 14.28213 36039 ft 481 kts 340°
2026-05-06 06:40 -12.28769 14.26291 36037 ft 481 kts 340°
2026-05-06 06:40 -12.22333 14.24370 36033 ft 481 kts 340°
2026-05-06 06:41 -12.15944 14.22464 36034 ft 481 kts 340°
2026-05-06 06:41 -12.09523 14.20549 36017 ft 481 kts 340°
2026-05-06 06:42 -12.03136 14.18646 36015 ft 482 kts 340°
2026-05-06 06:42 -11.96692 14.16725 36010 ft 482 kts 340°
2026-05-06 06:43 -11.90256 14.14809 36010 ft 481 kts 340°
2026-05-06 06:43 -11.83822 14.12894 36009 ft 481 kts 340°
2026-05-06 06:44 -11.77383 14.10979 36006 ft 481 kts 340°
2026-05-06 06:44 -11.70953 14.09067 36005 ft 481 kts 340°
2026-05-06 06:45 -11.64569 14.07169 35981 ft 481 kts 340°
2026-05-06 06:45 -11.58148 14.05262 35980 ft 480 kts 340°
2026-05-06 06:46 -11.51727 14.03355 35973 ft 480 kts 340°
2026-05-06 06:46 -11.45307 14.01450 35977 ft 480 kts 340°
2026-05-06 06:47 -11.38892 13.99547 35975 ft 480 kts 340°
2026-05-06 06:47 -11.32480 13.97646 35974 ft 480 kts 340°
2026-05-06 06:48 -11.26062 13.95744 35971 ft 480 kts 340°
2026-05-06 06:48 -11.19686 13.93855 35971 ft 480 kts 340°
2026-05-06 06:49 -11.13260 13.91952 35962 ft 480 kts 341°
2026-05-06 06:49 -11.06846 13.90054 35964 ft 480 kts 341°
2026-05-06 06:50 -11.00418 13.88153 35962 ft 480 kts 341°
2026-05-06 06:50 -10.94003 13.86256 35961 ft 480 kts 341°
2026-05-06 06:51 -10.87586 13.84360 35963 ft 480 kts 341°
2026-05-06 06:51 -10.81213 13.82478 35964 ft 480 kts 341°
2026-05-06 06:52 -10.74752 13.80569 35961 ft 480 kts 341°
2026-05-06 06:52 -10.68378 13.78679 35960 ft 480 kts 340°
2026-05-06 06:53 -10.61966 13.76776 35953 ft 480 kts 341°
2026-05-06 06:53 -10.55547 13.74873 35958 ft 481 kts 341°
2026-05-06 06:54 -10.49123 13.72970 35960 ft 481 kts 341°
2026-05-06 06:54 -10.43777 13.71388 35964 ft 481 kts 341°
2026-05-06 06:55 -10.37352 13.69486 35960 ft 481 kts 341°
2026-05-06 06:55 -10.30922 13.67584 35960 ft 481 kts 341°
2026-05-06 06:56 -10.24495 13.65684 35962 ft 481 kts 341°
2026-05-06 06:56 -10.18066 13.63784 35968 ft 481 kts 341°
2026-05-06 06:57 -10.11639 13.61886 35964 ft 481 kts 341°
2026-05-06 06:57 -10.05208 13.59997 35963 ft 481 kts 341°
2026-05-06 06:58 -9.98810 13.58122 35969 ft 481 kts 341°
2026-05-06 06:58 -9.92377 13.56237 35966 ft 481 kts 341°
2026-05-06 06:59 -9.85929 13.54347 35968 ft 482 kts 341°
2026-05-06 06:59 -9.79479 13.52457 35973 ft 483 kts 341°
2026-05-06 07:00 -9.73022 13.50567 35973 ft 483 kts 341°
2026-05-06 07:00 -9.66567 13.48677 35973 ft 483 kts 341°
2026-05-06 07:01 -9.60107 13.46787 35976 ft 483 kts 341°
2026-05-06 07:01 -9.53684 13.44908 35973 ft 484 kts 342°
2026-05-06 07:02 -9.47213 13.43015 35973 ft 485 kts 342°
2026-05-06 07:02 -9.40728 13.41120 35971 ft 485 kts 342°
2026-05-06 07:03 -9.34240 13.39225 35970 ft 485 kts 342°
2026-05-06 07:03 -9.27760 13.37332 35967 ft 485 kts 342°
2026-05-06 07:04 -9.21279 13.35440 35972 ft 485 kts 342°
2026-05-06 07:04 -9.14789 13.33546 35973 ft 486 kts 342°
2026-05-06 07:05 -9.08276 13.31645 35942 ft 487 kts 342°
2026-05-06 07:05 -9.01807 13.29759 35927 ft 487 kts 342°
2026-05-06 07:06 -8.95292 13.27860 35917 ft 487 kts 342°
2026-05-06 07:06 -8.88775 13.25961 35916 ft 487 kts 342°
2026-05-06 07:07 -8.82368 13.23781 35904 ft 485 kts 337°
2026-05-06 07:07 -8.76118 13.21231 35908 ft 484 kts 336°
2026-05-06 07:08 -8.69931 13.18633 35924 ft 484 kts 336°
2026-05-06 07:08 -8.63708 13.16016 35949 ft 484 kts 336°
2026-05-06 07:09 -8.57486 13.13409 35950 ft 484 kts 336°
2026-05-06 07:09 -8.51264 13.10808 35967 ft 485 kts 336°
2026-05-06 07:10 -8.45024 13.08201 35970 ft 485 kts 336°
2026-05-06 07:10 -8.38771 13.05591 35955 ft 485 kts 336°
2026-05-06 07:11 -8.32533 13.02987 35968 ft 485 kts 336°
2026-05-06 07:11 -8.26291 13.00382 35969 ft 485 kts 336°
2026-05-06 07:12 -8.20048 12.97778 35971 ft 485 kts 336°
2026-05-06 07:12 -8.13852 12.95193 35972 ft 485 kts 336°
2026-05-06 07:13 -8.07598 12.92586 35969 ft 487 kts 336°
2026-05-06 07:13 -8.01327 12.89972 35966 ft 487 kts 336°
2026-05-06 07:14 -7.95057 12.87360 35955 ft 487 kts 337°
2026-05-06 07:14 -7.88782 12.84747 35969 ft 487 kts 337°
2026-05-06 07:15 -7.82512 12.82136 35955 ft 487 kts 337°
2026-05-06 07:15 -7.76238 12.79525 35969 ft 487 kts 337°
2026-05-06 07:16 -7.69967 12.76916 35953 ft 487 kts 337°
2026-05-06 07:16 -7.63700 12.74309 35967 ft 488 kts 337°
2026-05-06 07:17 -7.57461 12.71715 35966 ft 488 kts 337°
2026-05-06 07:17 -7.51189 12.69108 35968 ft 488 kts 336°
2026-05-06 07:18 -7.44912 12.66499 35957 ft 488 kts 337°
2026-05-06 07:18 -7.38636 12.63892 35967 ft 487 kts 337°
2026-05-06 07:19 -7.32378 12.61293 35963 ft 486 kts 337°
2026-05-06 07:19 -7.26115 12.58693 35967 ft 487 kts 337°
2026-05-06 07:20 -7.19850 12.56093 35955 ft 486 kts 337°
2026-05-06 07:20 -7.13589 12.53495 35970 ft 487 kts 337°
2026-05-06 07:21 -7.07371 12.50916 35967 ft 486 kts 337°
2026-05-06 07:21 -7.01111 12.48320 35950 ft 486 kts 336°
2026-05-06 07:22 -6.94857 12.45730 35967 ft 485 kts 337°
2026-05-06 07:22 -6.88610 12.43138 35952 ft 485 kts 336°
2026-05-06 07:23 -6.82364 12.40545 35958 ft 485 kts 337°
2026-05-06 07:23 -6.76122 12.37955 35972 ft 485 kts 338°
2026-05-06 07:24 -6.69880 12.35368 35956 ft 485 kts 337°
2026-05-06 07:24 -6.63652 12.32787 35968 ft 483 kts 338°
2026-05-06 07:25 -6.57497 12.30237 35958 ft 481 kts 338°
2026-05-06 07:25 -6.51299 12.27671 35972 ft 481 kts 338°
2026-05-06 07:26 -6.45104 12.25106 35959 ft 481 kts 338°
2026-05-06 07:26 -6.38910 12.22542 35970 ft 481 kts 338°
2026-05-06 07:27 -6.32716 12.19978 35957 ft 482 kts 338°
2026-05-06 07:27 -6.26528 12.17418 35971 ft 480 kts 338°
2026-05-06 07:28 -6.20343 12.14860 35973 ft 480 kts 338°
2026-05-06 07:28 -6.11062 12.11022 35962 ft 480 kts 338°
2026-05-06 07:29 -6.04879 12.08466 35968 ft 480 kts 338°
2026-05-06 07:29 -5.98741 12.05930 35954 ft 480 kts 338°
2026-05-06 07:30 -5.92557 12.03374 35971 ft 480 kts 339°
2026-05-06 07:30 -5.86371 12.00819 35956 ft 481 kts 338°
2026-05-06 07:31 -5.80187 11.98265 35952 ft 481 kts 338°
2026-05-06 07:31 -5.73999 11.95711 35952 ft 481 kts 338°
2026-05-06 07:32 -5.67807 11.93155 35954 ft 481 kts 338°
2026-05-06 07:32 -5.61621 11.90602 35944 ft 481 kts 338°
2026-05-06 07:33 -5.55431 11.88048 35953 ft 481 kts 339°
2026-05-06 07:33 -5.49232 11.85492 35945 ft 482 kts 339°
2026-05-06 07:34 -5.43072 11.82951 35942 ft 482 kts 339°
2026-05-06 07:34 -5.36870 11.80394 35944 ft 481 kts 339°
2026-05-06 07:35 -5.30674 11.77840 35939 ft 481 kts 339°
2026-05-06 07:35 -5.24478 11.75287 35945 ft 481 kts 339°
2026-05-06 07:36 -5.18275 11.72731 35941 ft 481 kts 339°
2026-05-06 07:36 -5.11969 11.70554 35942 ft 479 kts 350°
2026-05-06 07:37 -5.05407 11.69752 35931 ft 478 kts 356°
2026-05-06 07:37 -4.98760 11.69280 35933 ft 478 kts 357°
2026-05-06 07:38 -4.92118 11.68865 35917 ft 478 kts 357°
2026-05-06 07:38 -4.85475 11.68431 35916 ft 478 kts 357°
2026-05-06 07:39 -4.78832 11.67979 35918 ft 478 kts 356°
2026-05-06 07:39 -4.72194 11.67522 35918 ft 478 kts 356°
2026-05-06 07:40 -4.65559 11.67065 35930 ft 478 kts 357°
2026-05-06 07:40 -4.58928 11.66609 35929 ft 478 kts 357°
2026-05-06 07:41 -4.53423 11.66231 35938 ft 477 kts 356°
2026-05-06 07:41 -4.45706 11.65702 35932 ft 478 kts 356°
2026-05-06 07:42 -4.39065 11.65246 35933 ft 479 kts 356°
2026-05-06 07:42 -4.33540 11.64867 35934 ft 479 kts 356°
2026-05-06 07:43 -4.26891 11.64411 35934 ft 479 kts 356°
2026-05-06 07:43 -4.20238 11.63955 35941 ft 479 kts 356°
2026-05-06 07:44 -4.13588 11.63499 35941 ft 479 kts 356°
2026-05-06 07:44 -4.06934 11.63044 35952 ft 479 kts 356°
2026-05-06 07:45 -4.00289 11.62589 35948 ft 479 kts 356°
2026-05-06 07:45 -3.93635 11.62134 35951 ft 479 kts 356°
2026-05-06 07:46 -3.87031 11.61682 35952 ft 479 kts 356°
2026-05-06 07:46 -3.80384 11.61227 35958 ft 479 kts 356°
2026-05-06 07:47 -3.73735 11.60772 35962 ft 479 kts 357°
2026-05-06 07:47 -3.67081 11.60301 35968 ft 480 kts 354°
2026-05-06 07:48 -3.60520 11.59049 35963 ft 480 kts 348°
2026-05-06 07:48 -3.54047 11.57508 35977 ft 481 kts 347°
2026-05-06 07:49 -3.47548 11.55904 35975 ft 481 kts 347°
2026-05-06 07:49 -3.41049 11.54306 35979 ft 481 kts 347°
2026-05-06 07:50 -3.34543 11.52717 35978 ft 481 kts 347°
2026-05-06 07:50 -3.28047 11.51137 35981 ft 480 kts 347°
2026-05-06 07:51 -3.21558 11.49558 35985 ft 480 kts 347°
2026-05-06 07:51 -3.15069 11.47980 35986 ft 480 kts 347°
2026-05-06 07:52 -3.08573 11.46400 35992 ft 480 kts 347°
2026-05-06 07:52 -3.02077 11.44820 36000 ft 480 kts 347°
2026-05-06 07:53 -2.95586 11.43241 35999 ft 479 kts 347°
2026-05-06 07:53 -2.89106 11.41665 35996 ft 479 kts 347°
2026-05-06 07:54 -2.82668 11.40099 35993 ft 479 kts 347°
2026-05-06 07:54 -2.76184 11.38523 35993 ft 479 kts 347°
2026-05-06 07:55 -2.69710 11.36949 35991 ft 479 kts 347°
2026-05-06 07:55 -2.63241 11.35377 35989 ft 478 kts 347°
2026-05-06 07:56 -2.56772 11.33805 35999 ft 478 kts 347°
2026-05-06 07:56 -2.50310 11.32235 35996 ft 478 kts 347°
2026-05-06 07:57 -2.43848 11.30664 35992 ft 478 kts 347°
2026-05-06 07:57 -2.37428 11.29104 35991 ft 478 kts 347°
2026-05-06 07:58 -2.30964 11.27534 35986 ft 478 kts 347°
2026-05-06 07:58 -2.24497 11.25963 35992 ft 478 kts 347°
2026-05-06 07:59 -2.18038 11.24394 35994 ft 477 kts 347°
2026-05-06 07:59 -2.11589 11.22828 35994 ft 477 kts 347°
2026-05-06 08:00 -2.05143 11.21262 35993 ft 477 kts 347°
2026-05-06 08:00 -1.98686 11.19694 35993 ft 477 kts 347°
2026-05-06 08:01 -1.92231 11.18127 36000 ft 477 kts 347°
2026-05-06 08:01 -1.85821 11.16570 35997 ft 477 kts 347°
2026-05-06 08:02 -1.79349 11.14999 36001 ft 478 kts 347°
2026-05-06 08:02 -1.72878 11.13428 36006 ft 478 kts 347°
2026-05-06 08:03 -1.66407 11.11857 35998 ft 478 kts 347°
2026-05-06 08:03 -1.59968 11.10294 36009 ft 478 kts 347°
2026-05-06 08:04 -1.53494 11.08723 36004 ft 478 kts 347°
2026-05-06 08:04 -1.47022 11.07152 36003 ft 478 kts 347°
2026-05-06 08:05 -1.40545 11.05580 36005 ft 479 kts 347°
2026-05-06 08:05 -1.34058 11.04006 36013 ft 479 kts 347°
2026-05-06 08:06 -1.27588 11.02436 36008 ft 479 kts 347°
2026-05-06 08:06 -1.21158 11.00876 36002 ft 479 kts 347°
2026-05-06 08:07 -1.14680 10.99304 35992 ft 479 kts 347°
2026-05-06 08:07 -1.08204 10.97733 35999 ft 479 kts 347°
2026-05-06 08:08 -1.01713 10.96159 35998 ft 480 kts 347°
2026-05-06 08:08 -0.95226 10.94585 36000 ft 480 kts 347°
2026-05-06 08:09 -0.88731 10.93009 35998 ft 480 kts 347°
2026-05-06 08:09 -0.82240 10.91434 35996 ft 480 kts 347°
2026-05-06 08:10 -0.75786 10.89869 35998 ft 480 kts 347°
2026-05-06 08:10 -0.69290 10.88293 35995 ft 480 kts 347°
2026-05-06 08:11 -0.62795 10.86716 35985 ft 481 kts 347°
2026-05-06 08:11 -0.56295 10.85137 35984 ft 481 kts 347°
2026-05-06 08:12 -0.49798 10.83560 35985 ft 481 kts 347°
2026-05-06 08:12 -0.43296 10.81982 35979 ft 480 kts 347°
2026-05-06 08:13 -0.36788 10.80402 35983 ft 481 kts 347°
2026-05-06 08:13 -0.30287 10.78824 35985 ft 481 kts 347°
2026-05-06 08:14 -0.23782 10.77245 35979 ft 481 kts 347°
2026-05-06 08:14 -0.17283 10.75667 35984 ft 481 kts 347°
2026-05-06 08:15 -0.10829 10.74101 35980 ft 481 kts 347°
2026-05-06 08:15 -0.04329 10.72523 35977 ft 481 kts 347°
2026-05-06 08:16 0.02169 10.70945 35978 ft 481 kts 347°
2026-05-06 08:16 0.08681 10.69362 35974 ft 481 kts 347°
2026-05-06 08:17 0.15194 10.67778 35981 ft 481 kts 347°
2026-05-06 08:17 0.21698 10.66198 35983 ft 481 kts 347°
2026-05-06 08:18 0.28216 10.64614 35977 ft 481 kts 347°
2026-05-06 08:18 0.34730 10.63030 35986 ft 481 kts 347°
2026-05-06 08:19 0.41238 10.61449 35986 ft 481 kts 347°
2026-05-06 08:19 0.47699 10.59878 35987 ft 481 kts 347°
2026-05-06 08:20 0.54209 10.58296 35987 ft 481 kts 347°
2026-05-06 08:20 0.60710 10.56718 35988 ft 481 kts 347°
2026-05-06 08:21 0.67216 10.55138 35988 ft 481 kts 347°
2026-05-06 08:21 0.73720 10.53558 35993 ft 481 kts 347°
2026-05-06 08:22 0.80181 10.51988 35992 ft 480 kts 347°
2026-05-06 08:22 0.86669 10.50412 35987 ft 479 kts 347°
2026-05-06 08:23 0.93150 10.48842 35990 ft 479 kts 347°
2026-05-06 08:23 0.99634 10.47268 35994 ft 479 kts 347°
2026-05-06 08:24 1.06120 10.45692 35988 ft 479 kts 347°
2026-05-06 08:24 1.12606 10.44118 35992 ft 479 kts 347°
2026-05-06 08:25 1.19081 10.42546 35983 ft 478 kts 347°
2026-05-06 08:25 1.25553 10.40975 35989 ft 478 kts 347°
2026-05-06 08:26 1.32017 10.39406 35987 ft 478 kts 347°
2026-05-06 08:26 1.38440 10.37847 35987 ft 478 kts 347°
2026-05-06 08:27 1.44910 10.36276 35988 ft 478 kts 347°
2026-05-06 08:27 1.51373 10.34707 35984 ft 478 kts 347°
2026-05-06 08:28 1.57838 10.33138 35983 ft 477 kts 347°
2026-05-06 08:28 1.64287 10.31572 35986 ft 477 kts 347°
2026-05-06 08:29 1.70736 10.30007 35981 ft 477 kts 347°
2026-05-06 08:29 1.77188 10.28440 35983 ft 477 kts 347°
2026-05-06 08:30 1.83638 10.26874 35970 ft 477 kts 347°
2026-05-06 08:30 1.89006 10.25569 35976 ft 477 kts 347°
2026-05-06 08:31 1.95451 10.24001 35967 ft 476 kts 347°
2026-05-06 08:31 2.01892 10.22435 35965 ft 476 kts 347°
2026-05-06 08:32 2.08295 10.20879 35963 ft 476 kts 347°
2026-05-06 08:32 2.14743 10.19312 35964 ft 477 kts 347°
2026-05-06 08:33 2.21198 10.17743 35962 ft 477 kts 347°
2026-05-06 08:33 2.27650 10.16174 35966 ft 477 kts 347°
2026-05-06 08:34 2.37324 10.13821 35970 ft 477 kts 347°
2026-05-06 08:35 2.43736 10.12262 35947 ft 477 kts 347°
2026-05-06 08:35 2.50183 10.10694 35948 ft 477 kts 347°
2026-05-06 08:36 2.56636 10.09124 35949 ft 477 kts 347°
2026-05-06 08:36 2.63087 10.07555 35949 ft 477 kts 347°
2026-05-06 08:37 2.69533 10.05987 35952 ft 477 kts 347°
2026-05-06 08:37 2.75992 10.04415 35950 ft 477 kts 347°
2026-05-06 08:38 2.82438 10.02846 35949 ft 477 kts 347°
2026-05-06 08:38 2.88889 10.01276 35954 ft 477 kts 347°
2026-05-06 08:39 2.95302 9.99715 35942 ft 477 kts 347°
2026-05-06 08:39 3.01745 9.98147 35933 ft 477 kts 348°
2026-05-06 08:40 3.08193 9.96577 35934 ft 476 kts 348°
2026-05-06 08:40 3.14640 9.95007 35937 ft 476 kts 348°
2026-05-06 08:41 3.21091 9.93436 35933 ft 476 kts 348°
2026-05-06 08:41 3.27534 9.91867 35941 ft 476 kts 348°
2026-05-06 08:42 3.33979 9.90297 35941 ft 476 kts 348°
2026-05-06 08:42 3.40422 9.88727 35938 ft 476 kts 348°
2026-05-06 08:43 3.46826 9.87167 35937 ft 476 kts 348°
2026-05-06 08:43 3.53265 9.85598 35936 ft 476 kts 348°
2026-05-06 08:44 3.59704 9.84028 35941 ft 476 kts 348°
2026-05-06 08:44 3.66148 9.82458 35940 ft 476 kts 347°
2026-05-06 08:45 3.72583 9.80889 35933 ft 476 kts 347°
2026-05-06 08:45 3.79029 9.79317 35937 ft 476 kts 348°
2026-05-06 08:46 3.85468 9.77747 35938 ft 477 kts 348°
2026-05-06 08:46 3.91874 9.76184 35936 ft 476 kts 348°
2026-05-06 08:47 3.98316 9.74593 35937 ft 477 kts 345°
2026-05-06 08:47 4.04630 9.72510 35937 ft 478 kts 342°
2026-05-06 08:48 4.10907 9.70304 35940 ft 478 kts 342°
2026-05-06 08:48 4.17173 9.68074 35945 ft 478 kts 342°
2026-05-06 08:49 4.23416 9.65857 35946 ft 478 kts 342°
2026-05-06 08:49 4.29698 9.63632 35947 ft 478 kts 342°
2026-05-06 08:50 4.35978 9.61412 35944 ft 478 kts 342°
2026-05-06 08:50 4.42259 9.59195 35939 ft 478 kts 342°
2026-05-06 08:51 4.48555 9.57025 35961 ft 478 kts 347°
2026-05-06 08:51 4.55002 9.55473 35956 ft 476 kts 349°
2026-05-06 08:52 4.61482 9.54057 35964 ft 476 kts 349°
2026-05-06 08:52 4.67962 9.52669 35975 ft 476 kts 349°
2026-05-06 08:53 4.74441 9.51274 35977 ft 476 kts 349°
2026-05-06 08:53 4.80919 9.49871 35974 ft 476 kts 349°
2026-05-06 08:54 4.87362 9.48473 35988 ft 476 kts 349°
2026-05-06 08:54 4.93838 9.47068 35985 ft 476 kts 349°
2026-05-06 08:55 5.00315 9.45662 35982 ft 476 kts 349°
2026-05-06 08:55 5.06790 9.44257 35988 ft 476 kts 349°
2026-05-06 08:56 5.13266 9.42851 35983 ft 476 kts 349°
2026-05-06 08:56 5.19747 9.41443 35987 ft 476 kts 349°
2026-05-06 08:57 5.26190 9.40044 35984 ft 476 kts 349°
2026-05-06 08:57 5.32672 9.38636 35979 ft 477 kts 349°
2026-05-06 08:58 5.39165 9.37226 35979 ft 478 kts 349°
2026-05-06 08:58 5.45672 9.35811 35973 ft 478 kts 349°
2026-05-06 08:59 5.52175 9.34398 35977 ft 478 kts 349°
2026-05-06 08:59 5.58672 9.32985 35972 ft 478 kts 349°
2026-05-06 09:00 5.65133 9.31580 35970 ft 478 kts 349°
2026-05-06 09:00 5.71670 9.30321 35987 ft 478 kts 354°
2026-05-06 09:01 5.78287 9.29478 35979 ft 478 kts 355°
2026-05-06 09:01 5.84897 9.28713 35974 ft 478 kts 355°
2026-05-06 09:02 5.91515 9.27957 35983 ft 478 kts 355°
2026-05-06 09:02 5.98132 9.27195 35985 ft 478 kts 355°
2026-05-06 09:03 6.04694 9.26433 35989 ft 477 kts 354°
2026-05-06 09:03 6.11262 9.25669 35985 ft 474 kts 354°
2026-05-06 09:04 6.17836 9.24905 35989 ft 474 kts 355°
2026-05-06 09:04 6.24406 9.24386 35989 ft 473 kts 358°
2026-05-06 09:05 6.30946 9.24026 35984 ft 473 kts 358°
2026-05-06 09:05 6.37527 9.23642 35986 ft 473 kts 358°
2026-05-06 09:06 6.44091 9.23222 35986 ft 472 kts 357°
2026-05-06 09:06 6.50636 9.22789 35974 ft 471 kts 357°
2026-05-06 09:07 6.57179 9.22356 35977 ft 471 kts 357°
2026-05-06 09:07 6.63726 9.21923 35970 ft 471 kts 357°
2026-05-06 09:08 6.70276 9.21491 35970 ft 471 kts 357°
2026-05-06 09:08 6.76820 9.21060 35971 ft 471 kts 357°
2026-05-06 09:09 6.83298 9.20632 35963 ft 468 kts 357°
2026-05-06 09:09 6.89787 9.20204 35958 ft 467 kts 357°
2026-05-06 09:10 6.96282 9.19776 35959 ft 467 kts 357°
2026-05-06 09:10 7.02771 9.19348 35962 ft 467 kts 357°
2026-05-06 09:11 7.09258 9.18919 35955 ft 467 kts 357°
2026-05-06 09:11 7.15724 9.18199 35953 ft 468 kts 353°
2026-05-06 09:12 7.22167 9.17227 35963 ft 468 kts 352°
2026-05-06 09:12 7.28567 9.16287 35961 ft 468 kts 353°
2026-05-06 09:13 7.35020 9.15390 35961 ft 468 kts 353°
2026-05-06 09:13 7.41477 9.14515 35959 ft 468 kts 353°
2026-05-06 09:14 7.47936 9.13641 35952 ft 468 kts 354°
2026-05-06 09:14 7.54382 9.12767 35955 ft 467 kts 353°
2026-05-06 09:15 7.60824 9.11892 35950 ft 467 kts 353°
2026-05-06 09:15 7.67266 9.11015 35953 ft 467 kts 353°
2026-05-06 09:16 7.73709 9.10139 35947 ft 467 kts 353°
2026-05-06 09:16 7.80146 9.09264 35946 ft 467 kts 353°
2026-05-06 09:17 7.86591 9.08386 35947 ft 468 kts 354°
2026-05-06 09:17 7.93057 9.07507 35948 ft 469 kts 353°
2026-05-06 09:18 7.99496 9.06630 35946 ft 470 kts 353°
2026-05-06 09:18 8.05972 9.05748 35946 ft 469 kts 353°
2026-05-06 09:19 8.11401 9.05011 35947 ft 469 kts 353°
2026-05-06 09:19 8.17846 9.04224 35946 ft 470 kts 354°
2026-05-06 09:20 8.24338 9.03467 35949 ft 469 kts 354°
2026-05-06 09:20 8.30821 9.02703 35943 ft 468 kts 353°
2026-05-06 09:21 8.37289 9.01919 35940 ft 468 kts 353°
2026-05-06 09:21 8.43765 9.01122 35942 ft 468 kts 353°
2026-05-06 09:22 8.50223 9.00237 35943 ft 468 kts 352°
2026-05-06 09:22 8.56638 8.99316 35940 ft 468 kts 352°
2026-05-06 09:23 8.63097 8.98401 35941 ft 468 kts 352°
2026-05-06 09:23 8.69537 8.97500 35944 ft 467 kts 352°
2026-05-06 09:24 8.75978 8.96603 35941 ft 467 kts 352°
2026-05-06 09:24 8.82388 8.95711 35942 ft 467 kts 352°
2026-05-06 09:25 8.88827 8.94813 35960 ft 467 kts 352°
2026-05-06 09:25 8.95265 8.93915 35959 ft 466 kts 352°
2026-05-06 09:26 9.01700 8.93017 35975 ft 467 kts 352°
2026-05-06 09:26 9.08147 8.92118 35974 ft 468 kts 352°
2026-05-06 09:27 9.14597 8.91217 35993 ft 468 kts 352°
2026-05-06 09:27 9.21049 8.90316 35993 ft 468 kts 352°
2026-05-06 09:28 9.27461 8.89420 35993 ft 468 kts 352°
2026-05-06 09:28 9.33918 8.88517 36004 ft 468 kts 352°
2026-05-06 09:29 9.40350 8.87618 36003 ft 464 kts 351°
2026-05-06 09:29 9.46721 8.86727 36009 ft 460 kts 351°
2026-05-06 09:30 9.53072 8.85838 36009 ft 460 kts 351°
2026-05-06 09:30 9.59426 8.84948 36010 ft 460 kts 351°
2026-05-06 09:31 9.65742 8.84067 36009 ft 460 kts 352°
2026-05-06 09:31 9.72120 8.83316 36006 ft 461 kts 353°
2026-05-06 09:32 9.78484 8.82632 36000 ft 459 kts 353°
2026-05-06 09:32 9.84841 8.81933 36001 ft 459 kts 353°
2026-05-06 09:33 9.91191 8.81217 35990 ft 459 kts 353°
2026-05-06 09:33 9.97539 8.80495 35991 ft 459 kts 352°
2026-05-06 09:34 10.03850 8.79776 35987 ft 459 kts 352°
2026-05-06 09:34 10.10190 8.79054 35987 ft 459 kts 352°
2026-05-06 09:35 10.16536 8.78332 35976 ft 458 kts 352°
2026-05-06 09:35 10.22866 8.77612 35977 ft 458 kts 352°
2026-05-06 09:36 10.29203 8.76890 35977 ft 458 kts 352°
2026-05-06 09:36 10.35533 8.76169 35968 ft 458 kts 352°
2026-05-06 09:37 10.41872 8.75446 35972 ft 458 kts 352°
2026-05-06 09:37 10.48205 8.74724 35969 ft 457 kts 352°
2026-05-06 09:38 10.54469 8.74010 35963 ft 455 kts 352°
2026-05-06 09:38 10.60773 8.73290 35956 ft 455 kts 352°
2026-05-06 09:39 10.67067 8.72572 35951 ft 455 kts 352°
2026-05-06 09:39 10.73369 8.71852 35953 ft 455 kts 352°
2026-05-06 09:40 10.79672 8.71131 35942 ft 456 kts 352°
2026-05-06 09:40 10.89149 8.70048 35942 ft 456 kts 352°
2026-05-06 09:41 10.95423 8.69077 35932 ft 455 kts 348°
2026-05-06 09:41 11.01612 8.67891 35932 ft 455 kts 348°
2026-05-06 09:42 11.07848 8.66717 35931 ft 456 kts 348°
2026-05-06 09:42 11.14098 8.65585 35931 ft 456 kts 348°
2026-05-06 09:43 11.20347 8.64474 35925 ft 455 kts 348°
2026-05-06 09:43 11.26591 8.63365 35928 ft 455 kts 348°
2026-05-06 09:44 11.32783 8.62263 35927 ft 454 kts 348°
2026-05-06 09:44 11.39020 8.61151 35922 ft 454 kts 348°
2026-05-06 09:45 11.45261 8.60037 35922 ft 454 kts 348°
2026-05-06 09:45 11.51495 8.58924 35917 ft 454 kts 348°
2026-05-06 09:46 11.57684 8.57819 35917 ft 454 kts 348°
2026-05-06 09:46 11.63912 8.56707 35911 ft 454 kts 348°
2026-05-06 09:47 11.70135 8.55595 35912 ft 454 kts 348°
2026-05-06 09:47 11.76366 8.54480 35911 ft 454 kts 348°
2026-05-06 09:48 11.82587 8.53368 35900 ft 454 kts 348°
2026-05-06 09:48 11.88812 8.52254 35900 ft 454 kts 348°
2026-05-06 09:49 11.95003 8.51145 35901 ft 453 kts 348°
2026-05-06 09:49 12.01213 8.50033 35900 ft 453 kts 348°
2026-05-06 09:50 12.07440 8.49033 35897 ft 454 kts 351°
2026-05-06 09:50 12.13745 8.48460 35898 ft 455 kts 353°
2026-05-06 09:51 12.20057 8.47943 35897 ft 455 kts 353°
2026-05-06 09:51 12.26364 8.47365 35895 ft 454 kts 352°
2026-05-06 09:52 12.32660 8.46750 35895 ft 454 kts 352°
2026-05-06 09:52 12.38912 8.46129 35889 ft 454 kts 352°
2026-05-06 09:53 12.45207 8.45504 35889 ft 454 kts 352°
2026-05-06 09:53 12.51495 8.44882 35887 ft 454 kts 352°
2026-05-06 09:54 12.57790 8.44261 35883 ft 454 kts 352°
2026-05-06 09:54 12.64077 8.43640 35885 ft 454 kts 351°
2026-05-06 09:55 12.70330 8.43021 35886 ft 454 kts 352°
2026-05-06 09:55 12.76624 8.42398 35886 ft 454 kts 352°
2026-05-06 09:56 12.82915 8.41775 35886 ft 454 kts 352°
2026-05-06 09:56 12.89214 8.41150 35887 ft 454 kts 352°
2026-05-06 09:57 12.95516 8.40524 35881 ft 454 kts 352°
2026-05-06 09:57 13.01810 8.39898 35883 ft 454 kts 351°
2026-05-06 09:58 13.08110 8.39272 35878 ft 454 kts 351°
2026-05-06 09:58 13.14369 8.38671 35878 ft 455 kts 352°
2026-05-06 09:59 13.20671 8.38091 35878 ft 455 kts 352°
2026-05-06 09:59 13.26974 8.37509 35879 ft 455 kts 352°
2026-05-06 10:00 13.33272 8.36923 35880 ft 454 kts 352°
2026-05-06 10:00 13.39571 8.36334 35878 ft 455 kts 351°
2026-05-06 10:01 13.45884 8.35743 35873 ft 456 kts 351°
2026-05-06 10:01 13.52207 8.35152 35873 ft 456 kts 351°
2026-05-06 10:02 13.58521 8.34561 35872 ft 456 kts 351°
2026-05-06 10:02 13.64841 8.33969 35873 ft 457 kts 351°
2026-05-06 10:03 13.71145 8.33377 35873 ft 458 kts 351°
2026-05-06 10:03 13.77486 8.32784 35873 ft 457 kts 351°
2026-05-06 10:04 13.83821 8.32189 35873 ft 457 kts 351°
2026-05-06 10:04 13.90153 8.31592 35873 ft 457 kts 351°
2026-05-06 10:05 13.96468 8.30997 35873 ft 457 kts 351°
2026-05-06 10:05 14.02797 8.30401 35873 ft 457 kts 351°
2026-05-06 10:06 14.08057 8.29905 35877 ft 457 kts 351°
2026-05-06 10:06 14.14392 8.29308 35873 ft 456 kts 351°
2026-05-06 10:07 14.20711 8.28712 35873 ft 456 kts 351°
2026-05-06 10:07 14.27042 8.28114 35873 ft 456 kts 351°
2026-05-06 10:08 14.33362 8.27516 35870 ft 456 kts 351°
2026-05-06 10:08 14.39691 8.26918 35871 ft 456 kts 351°
2026-05-06 10:09 14.46005 8.26322 35868 ft 456 kts 351°
2026-05-06 10:09 14.52285 8.25727 35868 ft 456 kts 351°
2026-05-06 10:10 14.58608 8.25129 35868 ft 456 kts 351°
2026-05-06 10:10 14.64932 8.24530 35866 ft 456 kts 351°
2026-05-06 10:11 14.71259 8.23930 35865 ft 456 kts 351°
2026-05-06 10:11 14.77594 8.23329 35867 ft 456 kts 351°
2026-05-06 10:12 14.83921 8.22729 35865 ft 457 kts 351°
2026-05-06 10:12 14.90252 8.22127 35865 ft 457 kts 351°
2026-05-06 10:13 14.96543 8.21530 35862 ft 457 kts 351°
2026-05-06 10:13 15.02877 8.20928 35863 ft 457 kts 351°
2026-05-06 10:14 15.09218 8.20325 35862 ft 457 kts 351°
2026-05-06 10:14 15.15546 8.19726 35864 ft 457 kts 351°
2026-05-06 10:15 15.21883 8.19125 35862 ft 457 kts 351°
2026-05-06 10:15 15.28233 8.18523 35862 ft 457 kts 351°
2026-05-06 10:16 15.34569 8.17922 35860 ft 457 kts 351°
2026-05-06 10:16 15.40909 8.17320 35857 ft 457 kts 351°
2026-05-06 10:17 15.47251 8.16717 35854 ft 457 kts 351°
2026-05-06 10:17 15.53551 8.16118 35851 ft 457 kts 351°
2026-05-06 10:18 15.59888 8.15515 35854 ft 457 kts 351°
2026-05-06 10:18 15.66224 8.14911 35858 ft 457 kts 351°
2026-05-06 10:19 15.72557 8.14308 35855 ft 457 kts 351°
2026-05-06 10:19 15.78895 8.13703 35856 ft 457 kts 351°
2026-05-06 10:20 15.85229 8.13099 35856 ft 457 kts 350°
2026-05-06 10:20 15.91561 8.12495 35851 ft 456 kts 350°
2026-05-06 10:21 15.97885 8.11891 35848 ft 456 kts 350°
2026-05-06 10:21 16.04208 8.11287 35849 ft 456 kts 350°
2026-05-06 10:22 16.10522 8.10682 35847 ft 456 kts 350°
2026-05-06 10:22 16.16812 8.10081 35848 ft 456 kts 350°
2026-05-06 10:23 16.23131 8.09476 35841 ft 455 kts 350°
2026-05-06 10:23 16.29435 8.08873 35839 ft 454 kts 350°
2026-05-06 10:24 16.35726 8.08269 35837 ft 454 kts 350°
2026-05-06 10:24 16.41979 8.07668 35837 ft 454 kts 350°
2026-05-06 10:25 16.48267 8.07064 35837 ft 454 kts 350°
2026-05-06 10:25 16.54565 8.06459 35842 ft 454 kts 349°
2026-05-06 10:26 16.60848 8.05856 35834 ft 453 kts 349°
2026-05-06 10:26 16.67118 8.05253 35835 ft 452 kts 349°
2026-05-06 10:27 16.73391 8.04649 35836 ft 452 kts 349°
2026-05-06 10:27 16.79659 8.04045 35839 ft 452 kts 349°
2026-05-06 10:28 16.85931 8.03440 35837 ft 452 kts 349°
2026-05-06 10:28 16.89029 8.03141 35938 ft 452 kts 349°
2026-05-06 10:28 16.92160 8.02840 35943 ft 452 kts 349°
2026-05-06 10:29 16.98303 8.01743 35941 ft 443 kts 338°
2026-05-06 10:29 17.04044 7.99470 35939 ft 440 kts 333°
2026-05-06 10:30 17.09679 7.96970 35925 ft 440 kts 333°
2026-05-06 10:30 17.15304 7.94430 35903 ft 441 kts 333°
2026-05-06 10:31 17.20903 7.91917 35878 ft 441 kts 333°
2026-05-06 10:31 17.26548 7.89398 35851 ft 441 kts 333°
2026-05-06 10:32 17.32192 7.86883 35828 ft 440 kts 333°
2026-05-06 10:32 17.37831 7.84368 35831 ft 440 kts 333°
2026-05-06 10:33 17.43458 7.81856 35829 ft 440 kts 333°
2026-05-06 10:33 17.49086 7.79341 35830 ft 439 kts 333°
2026-05-06 10:34 17.54670 7.76845 35831 ft 439 kts 333°
2026-05-06 10:34 17.60305 7.74324 35820 ft 439 kts 333°
2026-05-06 10:35 17.65923 7.71809 35820 ft 438 kts 333°
2026-05-06 10:35 17.71521 7.69301 35816 ft 437 kts 333°
2026-05-06 10:36 17.77119 7.66791 35816 ft 437 kts 333°
2026-05-06 10:36 17.82716 7.64279 35832 ft 437 kts 333°
2026-05-06 10:37 17.88312 7.61767 35834 ft 437 kts 333°
2026-05-06 10:37 17.93914 7.59251 35818 ft 437 kts 333°
2026-05-06 10:38 17.99512 7.56734 35825 ft 438 kts 332°
2026-05-06 10:38 18.05122 7.54210 35810 ft 439 kts 332°
2026-05-06 10:39 18.10712 7.51694 35829 ft 439 kts 332°
2026-05-06 10:39 18.16335 7.49161 35825 ft 439 kts 332°
2026-05-06 10:40 18.21951 7.46629 35812 ft 439 kts 332°
2026-05-06 10:40 18.27569 7.44095 35826 ft 439 kts 332°
2026-05-06 10:41 18.33185 7.41559 35822 ft 439 kts 332°
2026-05-06 10:41 18.38805 7.39020 35821 ft 440 kts 332°
2026-05-06 10:42 18.44390 7.36495 35822 ft 440 kts 332°
2026-05-06 10:42 18.50011 7.33953 35821 ft 440 kts 332°
2026-05-06 10:43 18.55635 7.31407 35820 ft 440 kts 332°
2026-05-06 10:44 18.64068 7.27585 35830 ft 440 kts 332°
2026-05-06 10:44 18.69693 7.25034 35820 ft 439 kts 332°
2026-05-06 10:45 18.75309 7.22485 35820 ft 439 kts 332°
2026-05-06 10:45 18.80925 7.19934 35816 ft 439 kts 332°
2026-05-06 10:46 18.86508 7.17396 35820 ft 439 kts 332°
2026-05-06 10:46 18.92126 7.14841 35822 ft 439 kts 332°
2026-05-06 10:47 18.97748 7.12284 35817 ft 439 kts 332°
2026-05-06 10:47 19.03364 7.09726 35821 ft 439 kts 332°
2026-05-06 10:48 19.08966 7.07171 35816 ft 438 kts 332°
2026-05-06 10:48 19.14574 7.04611 35821 ft 438 kts 332°
2026-05-06 10:49 19.20170 7.02056 35821 ft 438 kts 332°
2026-05-06 10:49 19.25770 6.99497 35820 ft 438 kts 332°
2026-05-06 10:50 19.31336 6.96952 35821 ft 438 kts 332°
2026-05-06 10:50 19.36934 6.94390 35818 ft 438 kts 332°
2026-05-06 10:51 19.42525 6.91830 35825 ft 437 kts 332°
2026-05-06 10:51 19.48119 6.89266 35821 ft 437 kts 332°
2026-05-06 10:52 19.52762 6.87137 35827 ft 437 kts 332°
2026-05-06 10:52 19.59260 6.84155 35824 ft 437 kts 332°
2026-05-06 10:53 19.63912 6.82018 35821 ft 439 kts 332°
2026-05-06 10:53 19.69516 6.79441 35826 ft 439 kts 331°
2026-05-06 10:54 19.75127 6.76861 35821 ft 439 kts 331°
2026-05-06 10:54 19.80737 6.74279 35825 ft 439 kts 331°
2026-05-06 10:55 19.86344 6.71696 35820 ft 439 kts 331°
2026-05-06 10:55 19.91959 6.69108 35829 ft 439 kts 331°
2026-05-06 10:56 19.97573 6.66517 35822 ft 439 kts 331°
2026-05-06 10:56 20.03144 6.63945 35837 ft 439 kts 331°
2026-05-06 10:57 20.08748 6.61356 35823 ft 439 kts 331°
2026-05-06 10:57 20.14356 6.58792 35829 ft 440 kts 332°
2026-05-06 10:58 20.20055 6.56399 35825 ft 440 kts 333°
2026-05-06 10:58 20.25776 6.54043 35831 ft 440 kts 333°
2026-05-06 10:59 20.31483 6.51663 35837 ft 440 kts 333°
2026-05-06 10:59 20.37180 6.49265 35833 ft 440 kts 333°
2026-05-06 11:00 20.42879 6.46858 35838 ft 440 kts 333°
2026-05-06 11:00 20.48540 6.44465 35833 ft 441 kts 332°
2026-05-06 11:01 20.54255 6.42048 35832 ft 442 kts 332°
2026-05-06 11:01 20.59969 6.39631 35835 ft 442 kts 332°
2026-05-06 11:02 20.65691 6.37209 35837 ft 442 kts 332°
2026-05-06 11:02 20.71407 6.34788 35833 ft 442 kts 332°
2026-05-06 11:03 20.77122 6.32364 35837 ft 441 kts 332°
2026-05-06 11:03 20.82802 6.29953 35837 ft 441 kts 332°
2026-05-06 11:04 20.88517 6.27526 35835 ft 441 kts 332°
2026-05-06 11:04 20.94225 6.25099 35840 ft 442 kts 332°
2026-05-06 11:05 20.99939 6.22668 35836 ft 441 kts 332°
2026-05-06 11:05 21.05647 6.20238 35840 ft 441 kts 332°
2026-05-06 11:06 21.11346 6.17811 35839 ft 440 kts 332°
2026-05-06 11:06 21.16999 6.15400 35845 ft 440 kts 332°
2026-05-06 11:07 21.22721 6.12956 35845 ft 440 kts 332°
2026-05-06 11:07 21.28375 6.10541 35846 ft 440 kts 332°
2026-05-06 11:08 21.34066 6.08108 35849 ft 440 kts 332°
2026-05-06 11:08 21.39755 6.05673 35848 ft 440 kts 332°
2026-05-06 11:09 21.45450 6.03234 35853 ft 441 kts 332°
2026-05-06 11:09 21.51142 6.00794 35851 ft 441 kts 332°
2026-05-06 11:10 21.56840 5.98349 35848 ft 441 kts 332°
2026-05-06 11:10 21.62529 5.95907 35851 ft 441 kts 332°
2026-05-06 11:11 21.68228 5.93458 35852 ft 440 kts 332°
2026-05-06 11:11 21.73881 5.91027 35854 ft 440 kts 332°
2026-05-06 11:12 21.79570 5.88579 35854 ft 439 kts 332°
2026-05-06 11:12 21.85241 5.86135 35856 ft 439 kts 332°
2026-05-06 11:13 21.90920 5.83686 35858 ft 439 kts 332°
2026-05-06 11:13 21.96593 5.81237 35860 ft 439 kts 332°
2026-05-06 11:14 22.02274 5.78783 35857 ft 439 kts 332°
2026-05-06 11:14 22.07919 5.76343 35859 ft 439 kts 332°
2026-05-06 11:15 22.13600 5.73884 35870 ft 439 kts 332°
2026-05-06 11:15 22.19282 5.71424 35868 ft 439 kts 332°
2026-05-06 11:16 22.24961 5.68962 35877 ft 440 kts 331°
2026-05-06 11:16 22.30608 5.66512 35876 ft 440 kts 331°
2026-05-06 11:17 22.36289 5.64046 35904 ft 440 kts 331°
2026-05-06 11:17 22.41969 5.61577 35886 ft 440 kts 331°
2026-05-06 11:18 22.47656 5.59103 35882 ft 440 kts 331°